date,time,SUV Intensity [MED/Hr],UV Index,Daily total [MED],Since Last [MED]
20/05/2023,00:01:59,0.000,0.0,0.0,0.0
20/05/2023,00:02:59,-0.001,0.0,0.0,0.0
20/05/2023,00:03:58,0.001,0.0,0.0,0.0
20/05/2023,00:04:58,0.000,0.0,0.0,0.0
20/05/2023,00:05:58,0.000,0.0,0.0,0.0
20/05/2023,00:06:58,0.001,0.0,0.0,0.0
20/05/2023,00:07:58,-0.000,0.0,0.0,0.0
20/05/2023,00:08:58,0.000,0.0,0.0,0.0
20/05/2023,00:09:59,0.000,0.0,0.0,0.0
20/05/2023,00:10:59,-0.001,0.0,0.0,0.0
20/05/2023,00:11:59,0.000,0.0,0.0,0.0
20/05/2023,00:12:59,0.000,0.0,0.0,0.0
20/05/2023,00:13:59,0.000,0.0,0.0,0.0
20/05/2023,00:14:59,0.000,0.0,0.0,0.0
20/05/2023,00:15:59,-0.000,0.0,0.0,0.0
20/05/2023,00:16:59,0.000,0.0,0.0,0.0
20/05/2023,00:17:58,0.001,0.0,0.0,0.0
20/05/2023,00:18:59,-0.001,0.0,0.0,0.0
20/05/2023,00:19:59,0.000,0.0,0.0,0.0
20/05/2023,00:20:59,0.000,0.0,0.0,0.0
20/05/2023,00:21:58,-0.001,0.0,0.0,0.0
20/05/2023,00:22:58,0.000,0.0,0.0,0.0
20/05/2023,00:23:58,0.000,0.0,0.0,0.0
20/05/2023,00:24:59,0.000,0.0,0.0,0.0
20/05/2023,00:25:59,0.001,0.0,0.0,0.0
20/05/2023,00:26:59,0.001,0.0,0.0,0.0
20/05/2023,00:27:59,0.000,0.0,0.0,0.0
20/05/2023,00:28:59,0.001,0.0,0.0,0.0
20/05/2023,00:29:58,0.000,0.0,0.0,0.0
20/05/2023,00:30:58,0.000,0.0,0.0,0.0
20/05/2023,00:31:58,-0.001,0.0,0.0,0.0
20/05/2023,00:32:58,0.001,0.0,0.0,0.0
20/05/2023,00:33:58,0.000,0.0,0.0,0.0
20/05/2023,00:34:58,0.000,0.0,0.0,0.0
20/05/2023,00:35:58,0.001,0.0,0.0,0.0
20/05/2023,00:36:58,0.000,0.0,0.0,0.0
20/05/2023,00:37:58,0.001,0.0,0.0,0.0
20/05/2023,00:38:58,0.000,0.0,0.0,0.0
20/05/2023,00:39:59,0.001,0.0,0.0,0.0
20/05/2023,00:40:59,0.000,0.0,0.0,0.0
20/05/2023,00:41:59,0.000,0.0,0.0,0.0
20/05/2023,00:42:59,0.000,0.0,0.0,0.0
20/05/2023,00:43:59,0.000,0.0,0.0,0.0
20/05/2023,00:44:59,0.000,0.0,0.0,0.0
20/05/2023,00:45:59,0.000,0.0,0.0,0.0
20/05/2023,00:46:59,0.000,0.0,0.0,0.0
20/05/2023,00:47:59,0.001,0.0,0.0,0.0
20/05/2023,00:48:59,-0.000,0.0,0.0,0.0
20/05/2023,00:49:59,0.000,0.0,0.0,0.0
20/05/2023,00:50:59,-0.001,0.0,0.0,0.0
20/05/2023,00:51:59,0.000,0.0,0.0,0.0
20/05/2023,00:52:58,0.000,0.0,0.0,0.0
20/05/2023,00:53:58,0.001,0.0,0.0,0.0
20/05/2023,00:54:58,0.000,0.0,0.0,0.0
20/05/2023,00:55:58,-0.001,0.0,0.0,0.0
20/05/2023,00:56:58,0.000,0.0,0.0,0.0
20/05/2023,00:58:00,0.000,0.0,0.0,0.0
20/05/2023,00:58:59,0.000,0.0,0.0,0.0
20/05/2023,00:59:59,0.000,0.0,0.0,0.0
20/05/2023,01:00:59,0.000,0.0,0.0,0.0
20/05/2023,01:01:59,0.001,0.0,0.0,0.0
20/05/2023,01:02:59,0.000,0.0,0.0,0.0
20/05/2023,01:03:59,0.001,0.0,0.0,0.0
20/05/2023,01:04:59,0.000,0.0,0.0,0.0
20/05/2023,01:05:59,0.001,0.0,0.0,0.0
20/05/2023,01:06:59,0.000,0.0,0.0,0.0
20/05/2023,01:07:58,0.001,0.0,0.0,0.0
20/05/2023,01:08:59,0.001,0.0,0.0,0.0
20/05/2023,01:09:59,0.000,0.0,0.0,0.0
20/05/2023,01:10:59,0.000,0.0,0.0,0.0
20/05/2023,01:11:58,0.001,0.0,0.0,0.0
20/05/2023,01:12:58,0.001,0.0,0.0,0.0
20/05/2023,01:13:59,0.001,0.0,0.0,0.0
20/05/2023,01:14:59,0.000,0.0,0.0,0.0
20/05/2023,01:15:58,0.001,0.0,0.0,0.0
20/05/2023,01:16:59,0.001,0.0,0.0,0.0
20/05/2023,01:17:58,0.001,0.0,0.0,0.0
20/05/2023,01:18:58,0.001,0.0,0.0,0.0
20/05/2023,01:19:58,0.001,0.0,0.0,0.0
20/05/2023,01:20:58,-0.000,0.0,0.0,0.0
20/05/2023,01:21:58,0.001,0.0,0.0,0.0
20/05/2023,01:22:59,0.001,0.0,0.0,0.0
20/05/2023,01:23:58,-0.000,0.0,0.0,0.0
20/05/2023,01:24:58,0.000,0.0,0.0,0.0
20/05/2023,01:25:59,0.001,0.0,0.0,0.0
20/05/2023,01:26:59,0.001,0.0,0.0,0.0
20/05/2023,01:27:59,0.001,0.0,0.0,0.0
20/05/2023,01:28:58,0.001,0.0,0.0,0.0
20/05/2023,01:29:58,0.001,0.0,0.0,0.0
20/05/2023,01:30:58,0.001,0.0,0.0,0.0
20/05/2023,01:31:58,0.001,0.0,0.0,0.0
20/05/2023,01:32:58,0.001,0.0,0.0,0.0
20/05/2023,01:33:59,0.001,0.0,0.0,0.0
20/05/2023,01:34:58,-0.000,0.0,0.0,0.0
20/05/2023,01:35:59,-0.000,0.0,0.0,0.0
20/05/2023,01:36:59,0.001,0.0,0.0,0.0
20/05/2023,01:37:59,0.001,0.0,0.0,0.0
20/05/2023,01:38:59,0.001,0.0,0.0,0.0
20/05/2023,01:39:59,0.001,0.0,0.0,0.0
20/05/2023,01:40:59,0.001,0.0,0.0,0.0
20/05/2023,01:41:59,0.001,0.0,0.0,0.0
20/05/2023,01:42:58,0.001,0.0,0.0,0.0
20/05/2023,01:43:59,0.001,0.0,0.0,0.0
20/05/2023,01:44:59,0.001,0.0,0.0,0.0
20/05/2023,01:45:59,0.001,0.0,0.0,0.0
20/05/2023,01:46:59,0.001,0.0,0.0,0.0
20/05/2023,01:47:59,0.001,0.0,0.0,0.0
20/05/2023,01:48:59,0.001,0.0,0.0,0.0
20/05/2023,01:49:59,0.000,0.0,0.0,0.0
20/05/2023,01:50:59,0.000,0.0,0.0,0.0
20/05/2023,01:51:59,0.000,0.0,0.0,0.0
20/05/2023,01:52:59,0.001,0.0,0.0,0.0
20/05/2023,01:53:59,0.001,0.0,0.0,0.0
20/05/2023,01:54:59,0.000,0.0,0.0,0.0
20/05/2023,01:55:59,-0.000,0.0,0.0,0.0
20/05/2023,01:56:58,-0.000,0.0,0.0,0.0
20/05/2023,01:57:59,0.000,0.0,0.0,0.0
20/05/2023,01:58:59,-0.000,0.0,0.0,0.0
20/05/2023,01:59:58,-0.000,0.0,0.0,0.0
20/05/2023,02:00:59,0.001,0.0,0.0,0.0
20/05/2023,02:01:59,0.001,0.0,0.0,0.0
20/05/2023,02:02:58,0.000,0.0,0.0,0.0
20/05/2023,02:03:59,0.001,0.0,0.0,0.0
20/05/2023,02:04:59,0.000,0.0,0.0,0.0
20/05/2023,02:05:59,0.000,0.0,0.0,0.0
20/05/2023,02:06:59,0.001,0.0,0.0,0.0
20/05/2023,02:07:59,0.001,0.0,0.0,0.0
20/05/2023,02:08:58,0.001,0.0,0.0,0.0
20/05/2023,02:09:59,0.000,0.0,0.0,0.0
20/05/2023,02:10:59,0.000,0.0,0.0,0.0
20/05/2023,02:11:58,0.000,0.0,0.0,0.0
20/05/2023,02:12:59,0.000,0.0,0.0,0.0
20/05/2023,02:13:59,0.001,0.0,0.0,0.0
20/05/2023,02:14:58,0.001,0.0,0.0,0.0
20/05/2023,02:15:58,0.000,0.0,0.0,0.0
20/05/2023,02:16:58,-0.000,0.0,0.0,0.0
20/05/2023,02:17:58,0.001,0.0,0.0,0.0
20/05/2023,02:18:58,-0.000,0.0,0.0,0.0
20/05/2023,02:19:59,0.000,0.0,0.0,0.0
20/05/2023,02:20:58,0.001,0.0,0.0,0.0
20/05/2023,02:21:59,0.000,0.0,0.0,0.0
20/05/2023,02:22:58,0.001,0.0,0.0,0.0
20/05/2023,02:23:59,-0.001,0.0,0.0,0.0
20/05/2023,02:25:00,-0.000,0.0,0.0,0.0
20/05/2023,02:25:59,-0.000,0.0,0.0,0.0
20/05/2023,02:26:59,0.000,0.0,0.0,0.0
20/05/2023,02:27:59,0.000,0.0,0.0,0.0
20/05/2023,02:28:59,0.000,0.0,0.0,0.0
20/05/2023,02:29:59,0.001,0.0,0.0,0.0
20/05/2023,02:30:58,0.001,0.0,0.0,0.0
20/05/2023,02:31:59,0.000,0.0,0.0,0.0
20/05/2023,02:32:59,0.001,0.0,0.0,0.0
20/05/2023,02:33:58,0.000,0.0,0.0,0.0
20/05/2023,02:34:58,0.000,0.0,0.0,0.0
20/05/2023,02:35:59,0.000,0.0,0.0,0.0
20/05/2023,02:36:59,-0.001,0.0,0.0,0.0
20/05/2023,02:37:58,0.001,0.0,0.0,0.0
20/05/2023,02:38:59,0.000,0.0,0.0,0.0
20/05/2023,02:39:59,0.000,0.0,0.0,0.0
20/05/2023,02:40:59,-0.001,0.0,0.0,0.0
20/05/2023,02:41:59,0.001,0.0,0.0,0.0
20/05/2023,02:42:59,0.001,0.0,0.0,0.0
20/05/2023,02:43:59,0.000,0.0,0.0,0.0
20/05/2023,02:44:58,0.000,0.0,0.0,0.0
20/05/2023,02:45:59,0.000,0.0,0.0,0.0
20/05/2023,02:46:58,0.000,0.0,0.0,0.0
20/05/2023,02:47:59,0.000,0.0,0.0,0.0
20/05/2023,02:48:59,-0.000,0.0,0.0,0.0
20/05/2023,02:49:59,0.000,0.0,0.0,0.0
20/05/2023,02:50:58,-0.001,0.0,0.0,0.0
20/05/2023,02:51:58,0.000,0.0,0.0,0.0
20/05/2023,02:52:59,-0.001,0.0,0.0,0.0
20/05/2023,02:53:59,0.000,0.0,0.0,0.0
20/05/2023,02:54:59,-0.000,0.0,0.0,0.0
20/05/2023,02:55:59,0.000,0.0,0.0,0.0
20/05/2023,02:56:58,0.000,0.0,0.0,0.0
20/05/2023,02:57:59,0.001,0.0,0.0,0.0
20/05/2023,02:58:59,0.001,0.0,0.0,0.0
20/05/2023,02:59:59,0.001,0.0,0.0,0.0
20/05/2023,03:00:59,0.001,0.0,0.0,0.0
20/05/2023,03:01:59,0.001,0.0,0.0,0.0
20/05/2023,03:02:58,0.000,0.0,0.0,0.0
20/05/2023,03:03:58,0.001,0.0,0.0,0.0
20/05/2023,03:04:58,0.001,0.0,0.0,0.0
20/05/2023,03:05:59,0.000,0.0,0.0,0.0
20/05/2023,03:06:58,0.000,0.0,0.0,0.0
20/05/2023,03:07:58,0.000,0.0,0.0,0.0
20/05/2023,03:08:59,0.000,0.0,0.0,0.0
20/05/2023,03:09:59,0.001,0.0,0.0,0.0
20/05/2023,03:10:59,0.000,0.0,0.0,0.0
20/05/2023,03:11:58,0.000,0.0,0.0,0.0
20/05/2023,03:12:59,0.001,0.0,0.0,0.0
20/05/2023,03:13:59,-0.000,0.0,0.0,0.0
20/05/2023,03:14:59,0.001,0.0,0.0,0.0
20/05/2023,03:15:59,0.000,0.0,0.0,0.0
20/05/2023,03:16:59,0.001,0.0,0.0,0.0
20/05/2023,03:17:59,0.001,0.0,0.0,0.0
20/05/2023,03:18:58,0.000,0.0,0.0,0.0
20/05/2023,03:19:59,0.000,0.0,0.0,0.0
20/05/2023,03:20:59,-0.000,0.0,0.0,0.0
20/05/2023,03:21:58,0.000,0.0,0.0,0.0
20/05/2023,03:22:59,0.001,0.0,0.0,0.0
20/05/2023,03:23:59,0.000,0.0,0.0,0.0
20/05/2023,03:24:59,0.000,0.0,0.0,0.0
20/05/2023,03:25:58,0.001,0.0,0.0,0.0
20/05/2023,03:26:58,-0.000,0.0,0.0,0.0
20/05/2023,03:27:58,0.001,0.0,0.0,0.0
20/05/2023,03:28:59,0.001,0.0,0.0,0.0
20/05/2023,03:29:59,0.001,0.0,0.0,0.0
20/05/2023,03:30:59,0.001,0.0,0.0,0.0
20/05/2023,03:31:59,0.001,0.0,0.0,0.0
20/05/2023,03:32:58,0.000,0.0,0.0,0.0
20/05/2023,03:33:58,0.001,0.0,0.0,0.0
20/05/2023,03:34:58,0.001,0.0,0.0,0.0
20/05/2023,03:35:59,0.001,0.0,0.0,0.0
20/05/2023,03:36:58,0.001,0.0,0.0,0.0
20/05/2023,03:37:59,0.001,0.0,0.0,0.0
20/05/2023,03:38:59,0.001,0.0,0.0,0.0
20/05/2023,03:39:59,0.000,0.0,0.0,0.0
20/05/2023,03:40:59,0.001,0.0,0.0,0.0
20/05/2023,03:41:59,0.001,0.0,0.0,0.0
20/05/2023,03:42:59,0.002,0.0,0.0,0.0
20/05/2023,03:43:58,0.001,0.0,0.0,0.0
20/05/2023,03:44:58,0.001,0.0,0.0,0.0
20/05/2023,03:45:58,0.001,0.0,0.0,0.0
20/05/2023,03:46:58,0.001,0.0,0.0,0.0
20/05/2023,03:47:59,0.001,0.0,0.0,0.0
20/05/2023,03:48:59,0.001,0.0,0.0,0.0
20/05/2023,03:49:59,0.001,0.0,0.0,0.0
20/05/2023,03:50:58,0.001,0.0,0.0,0.0
20/05/2023,03:51:58,0.001,0.0,0.0,0.0
20/05/2023,03:52:58,0.001,0.0,0.0,0.0
20/05/2023,03:53:59,0.001,0.0,0.0,0.0
20/05/2023,03:54:59,0.001,0.0,0.0,0.0
20/05/2023,03:55:59,0.001,0.0,0.0,0.0
20/05/2023,03:56:59,0.001,0.0,0.0,0.0
20/05/2023,03:57:59,0.001,0.0,0.0,0.0
20/05/2023,03:58:59,0.001,0.0,0.0,0.0
20/05/2023,03:59:59,0.001,0.0,0.0,0.0
20/05/2023,04:00:59,0.001,0.0,0.0,0.0
20/05/2023,04:01:59,0.001,0.0,0.0,0.0
20/05/2023,04:02:59,0.001,0.0,0.0,0.0
20/05/2023,04:03:59,0.000,0.0,0.0,0.0
20/05/2023,04:04:58,0.001,0.0,0.0,0.0
20/05/2023,04:05:59,0.001,0.0,0.0,0.0
20/05/2023,04:06:58,0.001,0.0,0.0,0.0
20/05/2023,04:07:59,0.001,0.0,0.0,0.0
20/05/2023,04:08:59,0.001,0.0,0.0,0.0
20/05/2023,04:09:59,0.001,0.0,0.0,0.0
20/05/2023,04:10:59,0.001,0.0,0.0,0.0
20/05/2023,04:11:59,0.001,0.0,0.0,0.0
20/05/2023,04:12:59,0.002,0.0,0.0,0.0
20/05/2023,04:13:59,0.002,0.0,0.0,0.0
20/05/2023,04:14:59,0.001,0.0,0.0,0.0
20/05/2023,04:15:59,0.002,0.0,0.0,0.0
20/05/2023,04:16:59,0.002,0.0,0.0,0.0
20/05/2023,04:17:59,0.001,0.0,0.0,0.0
20/05/2023,04:18:58,0.002,0.0,0.0,0.0
20/05/2023,04:19:59,0.003,0.0,0.0,0.0
20/05/2023,04:20:59,0.003,0.0,0.0,0.0
20/05/2023,04:21:59,0.003,0.0,0.0,0.0
20/05/2023,04:22:59,0.003,0.0,0.0,0.0
20/05/2023,04:23:59,0.003,0.0,0.0,0.0
20/05/2023,04:24:59,0.004,0.0,0.0,0.0
20/05/2023,04:25:59,0.004,0.0,0.0,0.0
20/05/2023,04:26:59,0.004,0.0,0.0,0.0
20/05/2023,04:28:00,0.004,0.0,0.0,0.0
20/05/2023,04:29:00,0.003,0.0,0.0,0.0
20/05/2023,04:29:59,0.005,0.0,0.0,0.0
20/05/2023,04:30:58,0.005,0.0,0.0,0.0
20/05/2023,04:31:58,0.005,0.0,0.0,0.0
20/05/2023,04:32:59,0.004,0.0,0.0,0.0
20/05/2023,04:33:59,0.005,0.0,0.0,0.0
20/05/2023,04:34:59,0.005,0.0,0.0,0.0
20/05/2023,04:35:58,0.005,0.0,0.0,0.0
20/05/2023,04:36:59,0.005,0.0,0.0,0.0
20/05/2023,04:37:59,0.006,0.0,0.0,0.0
20/05/2023,04:38:59,0.006,0.0,0.0,0.0
20/05/2023,04:39:59,0.006,0.0,0.0,0.0
20/05/2023,04:40:59,0.007,0.0,0.0,0.0
20/05/2023,04:41:58,0.007,0.0,0.0,0.0
20/05/2023,04:42:58,0.007,0.0,0.0,0.0
20/05/2023,04:43:59,0.007,0.0,0.0,0.0
20/05/2023,04:45:00,0.008,0.0,0.001,0.001
20/05/2023,04:46:00,0.007,0.0,0.001,0.0
20/05/2023,04:46:59,0.009,0.0,0.001,0.0
20/05/2023,04:47:59,0.009,0.0,0.001,0.0
20/05/2023,04:48:59,0.008,0.0,0.001,0.0
20/05/2023,04:49:59,0.009,0.0,0.001,0.0
20/05/2023,04:50:59,0.009,0.0,0.001,0.0
20/05/2023,04:51:59,0.010,0.0,0.002,0.001
20/05/2023,04:52:58,0.011,0.0,0.002,0.0
20/05/2023,04:53:58,0.013,0.0,0.002,0.0
20/05/2023,04:54:58,0.012,0.0,0.002,0.0
20/05/2023,04:55:59,0.011,0.0,0.002,0.0
20/05/2023,04:56:59,0.011,0.0,0.003,0.001
20/05/2023,04:57:59,0.011,0.0,0.003,0.0
20/05/2023,04:58:58,0.011,0.0,0.003,0.0
20/05/2023,04:59:58,0.011,0.0,0.003,0.0
20/05/2023,05:00:59,0.011,0.0,0.003,0.0
20/05/2023,05:01:59,0.011,0.0,0.003,0.0
20/05/2023,05:02:59,0.012,0.0,0.004,0.001
20/05/2023,05:03:59,0.011,0.0,0.004,0.0
20/05/2023,05:04:59,0.013,0.0,0.004,0.0
20/05/2023,05:05:59,0.012,0.0,0.004,0.0
20/05/2023,05:06:58,0.013,0.0,0.004,0.0
20/05/2023,05:07:59,0.014,0.0,0.005,0.001
20/05/2023,05:08:59,0.014,0.0,0.005,0.0
20/05/2023,05:09:59,0.016,0.0,0.005,0.0
20/05/2023,05:10:59,0.013,0.0,0.005,0.0
20/05/2023,05:11:58,0.016,0.0,0.006,0.001
20/05/2023,05:12:59,0.018,0.0,0.006,0.0
20/05/2023,05:13:59,0.020,0.0,0.006,0.0
20/05/2023,05:14:59,0.018,0.0,0.007,0.001
20/05/2023,05:15:58,0.018,0.0,0.007,0.0
20/05/2023,05:16:59,0.019,0.0,0.007,0.0
20/05/2023,05:17:59,0.020,0.0,0.008,0.001
20/05/2023,05:18:59,0.024,0.0,0.008,0.0
20/05/2023,05:19:58,0.023,0.0,0.008,0.0
20/05/2023,05:20:58,0.023,0.0,0.009,0.001
20/05/2023,05:21:59,0.024,0.0,0.009,0.0
20/05/2023,05:22:59,0.024,0.0,0.01,0.001
20/05/2023,05:23:58,0.025,0.0,0.01,0.0
20/05/2023,05:24:59,0.026,0.0,0.01,0.0
20/05/2023,05:25:59,0.026,0.0,0.011,0.001
20/05/2023,05:26:59,0.030,0.0,0.011,0.0
20/05/2023,05:27:59,0.034,0.0,0.012,0.001
20/05/2023,05:28:59,0.031,0.0,0.012,0.0
20/05/2023,05:29:59,0.029,0.0,0.013,0.001
20/05/2023,05:30:59,0.030,0.0,0.013,0.0
20/05/2023,05:31:59,0.034,0.0,0.014,0.001
20/05/2023,05:32:59,0.039,0.0,0.014,0.0
20/05/2023,05:33:59,0.038,0.0,0.015,0.001
20/05/2023,05:34:59,0.035,0.0,0.016,0.001
20/05/2023,05:35:59,0.031,0.0,0.016,0.0
20/05/2023,05:36:59,0.030,0.0,0.017,0.001
20/05/2023,05:37:59,0.031,0.0,0.017,0.0
20/05/2023,05:38:59,0.034,0.0,0.018,0.001
20/05/2023,05:39:58,0.035,0.0,0.018,0.0
20/05/2023,05:40:59,0.042,0.0,0.019,0.001
20/05/2023,05:41:59,0.051,0.0,0.02,0.001
20/05/2023,05:42:59,0.053,0.0,0.021,0.001
20/05/2023,05:43:59,0.049,0.0,0.021,0.0
20/05/2023,05:44:59,0.045,0.0,0.022,0.001
20/05/2023,05:45:59,0.049,0.0,0.023,0.001
20/05/2023,05:46:59,0.047,0.0,0.024,0.001
20/05/2023,05:47:59,0.045,0.0,0.025,0.001
20/05/2023,05:48:59,0.039,0.0,0.025,0.0
20/05/2023,05:49:59,0.036,0.0,0.026,0.001
20/05/2023,05:50:59,0.040,0.0,0.027,0.001
20/05/2023,05:51:59,0.048,0.0,0.027,0.0
20/05/2023,05:52:59,0.054,0.0,0.028,0.001
20/05/2023,05:53:59,0.062,0.0,0.029,0.001
20/05/2023,05:54:59,0.066,0.0,0.03,0.001
20/05/2023,05:55:59,0.065,0.0,0.031,0.001
20/05/2023,05:56:59,0.063,0.0,0.032,0.001
20/05/2023,05:57:59,0.056,0.0,0.033,0.001
20/05/2023,05:58:59,0.059,0.0,0.034,0.001
20/05/2023,05:59:59,0.058,0.0,0.035,0.001
20/05/2023,06:01:00,0.058,0.0,0.036,0.001
20/05/2023,06:01:59,0.063,0.0,0.037,0.001
20/05/2023,06:02:59,0.072,0.0,0.038,0.001
20/05/2023,06:03:59,0.074,0.0,0.04,0.002
20/05/2023,06:04:59,0.071,0.0,0.041,0.001
20/05/2023,06:05:59,0.069,0.0,0.042,0.001
20/05/2023,06:06:59,0.067,0.0,0.043,0.001
20/05/2023,06:07:59,0.068,0.0,0.044,0.001
20/05/2023,06:08:59,0.074,0.0,0.045,0.001
20/05/2023,06:09:59,0.079,0.0,0.047,0.002
20/05/2023,06:10:59,0.088,0.0,0.048,0.001
20/05/2023,06:11:59,0.094,0.0,0.05,0.002
20/05/2023,06:12:59,0.099,0.0,0.051,0.001
20/05/2023,06:13:59,0.105,0.0,0.053,0.002
20/05/2023,06:14:59,0.107,0.0,0.055,0.002
20/05/2023,06:15:59,0.105,0.0,0.056,0.001
20/05/2023,06:16:59,0.108,0.0,0.058,0.002
20/05/2023,06:17:58,0.114,0.0,0.06,0.002
20/05/2023,06:18:59,0.120,0.0,0.062,0.002
20/05/2023,06:19:59,0.122,0.0,0.064,0.002
20/05/2023,06:20:59,0.125,0.0,0.066,0.002
20/05/2023,06:22:00,0.125,0.0,0.068,0.002
20/05/2023,06:23:00,0.130,0.0,0.07,0.002
20/05/2023,06:23:59,0.141,0.0,0.073,0.003
20/05/2023,06:24:59,0.150,0.0,0.075,0.002
20/05/2023,06:25:59,0.145,0.0,0.077,0.002
20/05/2023,06:26:59,0.158,0.0,0.08,0.003
20/05/2023,06:27:59,0.159,0.0,0.083,0.003
20/05/2023,06:28:59,0.155,0.0,0.085,0.002
20/05/2023,06:29:59,0.167,0.0,0.088,0.003
20/05/2023,06:30:59,0.166,0.0,0.09,0.002
20/05/2023,06:31:59,0.155,0.0,0.093,0.003
20/05/2023,06:32:59,0.160,0.0,0.096,0.003
20/05/2023,06:33:59,0.169,0.0,0.099,0.003
20/05/2023,06:34:59,0.173,0.0,0.101,0.002
20/05/2023,06:35:59,0.181,0.0,0.104,0.003
20/05/2023,06:36:59,0.187,0.0,0.107,0.003
20/05/2023,06:37:59,0.181,0.0,0.111,0.004
20/05/2023,06:38:59,0.185,0.0,0.114,0.003
20/05/2023,06:39:59,0.191,0.0,0.117,0.003
20/05/2023,06:40:59,0.193,0.0,0.12,0.003
20/05/2023,06:41:59,0.200,0.0,0.123,0.003
20/05/2023,06:42:59,0.191,0.0,0.127,0.004
20/05/2023,06:43:59,0.197,0.0,0.13,0.003
20/05/2023,06:45:00,0.187,0.0,0.133,0.003
20/05/2023,06:46:00,0.191,0.0,0.136,0.003
20/05/2023,06:46:59,0.187,0.0,0.139,0.003
20/05/2023,06:48:00,0.213,0.0,0.142,0.003
20/05/2023,06:48:58,0.198,0.0,0.146,0.004
20/05/2023,06:49:59,0.226,1.0,0.149,0.003
20/05/2023,06:50:59,0.210,0.0,0.153,0.004
20/05/2023,06:51:59,0.217,0.0,0.156,0.003
20/05/2023,06:52:59,0.220,1.0,0.16,0.004
20/05/2023,06:53:59,0.231,1.0,0.164,0.004
20/05/2023,06:54:59,0.223,1.0,0.168,0.004
20/05/2023,06:55:59,0.247,1.0,0.172,0.004
20/05/2023,06:56:59,0.257,1.0,0.176,0.004
20/05/2023,06:58:00,0.262,1.0,0.18,0.004
20/05/2023,06:58:59,0.270,1.0,0.184,0.004
20/05/2023,06:59:59,0.277,1.0,0.189,0.005
20/05/2023,07:00:59,0.277,1.0,0.193,0.004
20/05/2023,07:01:59,0.266,1.0,0.198,0.005
20/05/2023,07:02:59,0.290,1.0,0.203,0.005
20/05/2023,07:04:00,0.297,1.0,0.208,0.005
20/05/2023,07:04:59,0.302,1.0,0.213,0.005
20/05/2023,07:05:59,0.307,1.0,0.217,0.004
20/05/2023,07:06:59,0.307,1.0,0.223,0.006
20/05/2023,07:07:59,0.314,1.0,0.228,0.005
20/05/2023,07:08:59,0.320,1.0,0.233,0.005
20/05/2023,07:09:59,0.324,1.0,0.238,0.005
20/05/2023,07:11:00,0.329,1.0,0.244,0.006
20/05/2023,07:11:59,0.335,1.0,0.25,0.006
20/05/2023,07:12:59,0.339,1.0,0.255,0.005
20/05/2023,07:13:59,0.344,1.0,0.261,0.006
20/05/2023,07:14:59,0.353,1.0,0.267,0.006
20/05/2023,07:15:59,0.352,1.0,0.272,0.005
20/05/2023,07:16:59,0.360,1.0,0.278,0.006
20/05/2023,07:17:59,0.370,1.0,0.285,0.007
20/05/2023,07:18:59,0.371,1.0,0.291,0.006
20/05/2023,07:19:59,0.381,1.0,0.297,0.006
20/05/2023,07:20:59,0.387,1.0,0.303,0.006
20/05/2023,07:21:59,0.392,1.0,0.31,0.007
20/05/2023,07:22:59,0.375,1.0,0.316,0.006
20/05/2023,07:23:59,0.395,1.0,0.323,0.007
20/05/2023,07:24:59,0.402,1.0,0.33,0.007
20/05/2023,07:26:00,0.407,1.0,0.336,0.006
20/05/2023,07:26:59,0.402,1.0,0.343,0.007
20/05/2023,07:27:59,0.418,1.0,0.35,0.007
20/05/2023,07:28:59,0.414,1.0,0.356,0.006
20/05/2023,07:29:59,0.425,1.0,0.364,0.008
20/05/2023,07:30:59,0.423,1.0,0.37,0.006
20/05/2023,07:32:00,0.423,1.0,0.377,0.007
20/05/2023,07:33:29,0.387,1.0,0.387,0.01
20/05/2023,07:35:00,0.447,1.0,0.398,0.011
20/05/2023,07:35:59,0.393,1.0,0.405,0.007
20/05/2023,07:36:59,0.461,1.0,0.412,0.007
20/05/2023,07:37:59,0.469,1.0,0.42,0.008
20/05/2023,07:38:59,0.477,1.0,0.428,0.008
20/05/2023,07:39:59,0.458,1.0,0.435,0.007
20/05/2023,07:41:00,0.458,1.0,0.442,0.007
20/05/2023,07:42:00,0.427,1.0,0.45,0.008
20/05/2023,07:42:59,0.497,1.0,0.458,0.008
20/05/2023,07:43:59,0.505,1.0,0.466,0.008
20/05/2023,07:44:59,0.512,1.0,0.475,0.009
20/05/2023,07:45:59,0.385,1.0,0.482,0.007
20/05/2023,07:46:59,0.523,1.0,0.49,0.008
20/05/2023,07:48:00,0.398,1.0,0.497,0.007
20/05/2023,07:49:00,0.456,1.0,0.503,0.006
20/05/2023,07:49:59,0.542,1.0,0.512,0.009
20/05/2023,07:51:00,0.549,1.0,0.521,0.009
20/05/2023,07:52:00,0.473,1.0,0.53,0.009
20/05/2023,07:53:00,0.440,1.0,0.539,0.009
20/05/2023,07:53:59,0.573,1.0,0.547,0.008
20/05/2023,07:54:59,0.565,1.0,0.557,0.01
20/05/2023,07:55:59,0.584,1.0,0.566,0.009
20/05/2023,07:56:59,0.590,1.0,0.576,0.01
20/05/2023,07:57:59,0.598,1.0,0.586,0.01
20/05/2023,07:58:59,0.607,1.0,0.596,0.01
20/05/2023,07:59:59,0.612,1.0,0.606,0.01
20/05/2023,08:01:00,0.614,1.0,0.617,0.011
20/05/2023,08:01:59,0.622,1.0,0.627,0.01
20/05/2023,08:02:59,0.632,1.0,0.637,0.01
20/05/2023,08:03:59,0.634,1.0,0.648,0.011
20/05/2023,08:04:59,0.642,1.0,0.658,0.01
20/05/2023,08:05:59,0.650,1.0,0.669,0.011
20/05/2023,08:06:59,0.659,2.0,0.68,0.011
20/05/2023,08:07:59,0.660,2.0,0.691,0.011
20/05/2023,08:08:59,0.665,2.0,0.702,0.011
20/05/2023,08:10:00,0.676,2.0,0.713,0.011
20/05/2023,08:10:59,0.680,2.0,0.725,0.012
20/05/2023,08:11:59,0.691,2.0,0.736,0.011
20/05/2023,08:12:59,0.697,2.0,0.748,0.012
20/05/2023,08:13:59,0.705,2.0,0.759,0.011
20/05/2023,08:14:59,0.710,2.0,0.771,0.012
20/05/2023,08:15:59,0.717,2.0,0.783,0.012
20/05/2023,08:16:59,0.723,2.0,0.795,0.012
20/05/2023,08:17:59,0.731,2.0,0.807,0.012
20/05/2023,08:18:59,0.737,2.0,0.819,0.012
20/05/2023,08:19:59,0.743,2.0,0.832,0.013
20/05/2023,08:21:00,0.754,2.0,0.844,0.012
20/05/2023,08:21:59,0.756,2.0,0.856,0.012
20/05/2023,08:22:59,0.763,2.0,0.869,0.013
20/05/2023,08:23:59,0.771,2.0,0.882,0.013
20/05/2023,08:24:59,0.786,2.0,0.895,0.013
20/05/2023,08:25:59,0.783,2.0,0.908,0.013
20/05/2023,08:26:59,0.774,2.0,0.921,0.013
20/05/2023,08:27:59,0.797,2.0,0.934,0.013
20/05/2023,08:29:00,0.804,2.0,0.948,0.014
20/05/2023,08:30:00,0.812,2.0,0.961,0.013
20/05/2023,08:30:59,0.820,2.0,0.974,0.013
20/05/2023,08:31:59,0.829,2.0,0.988,0.014
20/05/2023,08:33:00,0.834,2.0,1.001,0.013
20/05/2023,08:33:59,0.844,2.0,1.015,0.014
20/05/2023,08:34:59,0.850,2.0,1.029,0.014
20/05/2023,08:36:00,0.857,2.0,1.044,0.015
20/05/2023,08:36:59,0.862,2.0,1.058,0.014
20/05/2023,08:37:59,0.867,2.0,1.073,0.015
20/05/2023,08:38:59,0.873,2.0,1.087,0.014
20/05/2023,08:40:00,0.886,2.0,1.102,0.015
20/05/2023,08:40:59,0.885,2.0,1.116,0.014
20/05/2023,08:41:59,0.898,2.0,1.131,0.015
20/05/2023,08:43:00,0.901,2.0,1.146,0.015
20/05/2023,08:43:59,0.911,2.0,1.161,0.015
20/05/2023,08:45:00,0.917,2.0,1.177,0.016
20/05/2023,08:45:59,0.926,2.0,1.192,0.015
20/05/2023,08:46:59,0.926,2.0,1.207,0.015
20/05/2023,08:47:59,0.934,2.0,1.222,0.015
20/05/2023,08:48:59,0.934,2.0,1.238,0.016
20/05/2023,08:49:59,0.949,2.0,1.254,0.016
20/05/2023,08:50:59,0.955,2.0,1.27,0.016
20/05/2023,08:51:59,0.969,2.0,1.286,0.016
20/05/2023,08:53:00,0.972,2.0,1.302,0.016
20/05/2023,08:53:59,0.984,2.0,1.318,0.016
20/05/2023,08:54:59,0.991,2.0,1.334,0.016
20/05/2023,08:55:59,1.003,2.0,1.351,0.017
20/05/2023,08:56:59,1.005,2.0,1.368,0.017
20/05/2023,08:57:59,1.009,2.0,1.385,0.017
20/05/2023,08:58:59,1.014,2.0,1.401,0.016
20/05/2023,08:59:59,1.015,2.0,1.419,0.018
20/05/2023,09:00:59,1.035,2.0,1.436,0.017
20/05/2023,09:01:59,1.032,2.0,1.453,0.017
20/05/2023,09:02:59,1.040,2.0,1.471,0.018
20/05/2023,09:03:59,1.054,2.0,1.488,0.017
20/05/2023,09:04:59,1.040,2.0,1.505,0.017
20/05/2023,09:05:59,1.071,2.0,1.523,0.018
20/05/2023,09:07:00,1.067,2.0,1.541,0.018
20/05/2023,09:08:00,1.076,2.0,1.559,0.018
20/05/2023,09:08:59,1.084,2.0,1.576,0.017
20/05/2023,09:09:59,1.080,2.0,1.595,0.019
20/05/2023,09:10:59,1.102,3.0,1.613,0.018
20/05/2023,09:11:59,1.118,3.0,1.631,0.018
20/05/2023,09:12:59,1.119,3.0,1.65,0.019
20/05/2023,09:14:00,1.122,3.0,1.669,0.019
20/05/2023,09:15:00,1.145,3.0,1.688,0.019
20/05/2023,09:15:59,1.148,3.0,1.707,0.019
20/05/2023,09:16:59,1.151,3.0,1.726,0.019
20/05/2023,09:17:59,1.167,3.0,1.745,0.019
20/05/2023,09:18:59,1.165,3.0,1.765,0.02
20/05/2023,09:20:00,1.176,3.0,1.784,0.019
20/05/2023,09:21:00,1.185,3.0,1.804,0.02
20/05/2023,09:21:59,1.193,3.0,1.822,0.018
20/05/2023,09:22:59,1.138,3.0,1.842,0.02
20/05/2023,09:23:59,1.197,3.0,1.863,0.021
20/05/2023,09:24:59,1.199,3.0,1.883,0.02
20/05/2023,09:26:00,1.213,3.0,1.903,0.02
20/05/2023,09:27:00,1.218,3.0,1.923,0.02
20/05/2023,09:28:00,1.223,3.0,1.943,0.02
20/05/2023,09:29:00,1.238,3.0,1.964,0.021
20/05/2023,09:30:00,1.245,3.0,1.985,0.021
20/05/2023,09:30:59,1.248,3.0,2.005,0.02
20/05/2023,09:31:59,1.261,3.0,2.026,0.021
20/05/2023,09:32:59,1.266,3.0,2.047,0.021
20/05/2023,09:33:59,1.275,3.0,2.068,0.021
20/05/2023,09:35:00,1.287,3.0,2.09,0.022
20/05/2023,09:36:00,1.291,3.0,2.111,0.021
20/05/2023,09:36:59,1.282,3.0,2.132,0.021
20/05/2023,09:37:59,1.290,3.0,2.154,0.022
20/05/2023,09:39:00,1.299,3.0,2.176,0.022
20/05/2023,09:40:00,1.311,3.0,2.197,0.021
20/05/2023,09:40:59,1.320,3.0,2.219,0.022
20/05/2023,09:41:59,1.325,3.0,2.241,0.022
20/05/2023,09:42:59,1.338,3.0,2.263,0.022
20/05/2023,09:44:00,1.337,3.0,2.286,0.023
20/05/2023,09:45:00,1.347,3.0,2.308,0.022
20/05/2023,09:45:59,1.358,3.0,2.33,0.022
20/05/2023,09:47:00,1.360,3.0,2.353,0.023
20/05/2023,09:48:00,1.355,3.0,2.376,0.023
20/05/2023,09:49:00,1.364,3.0,2.399,0.023
20/05/2023,09:50:00,1.374,3.0,2.421,0.022
20/05/2023,09:51:00,1.383,3.0,2.444,0.023
20/05/2023,09:51:59,1.370,3.0,2.466,0.022
20/05/2023,09:52:59,1.376,3.0,2.489,0.023
20/05/2023,09:53:59,1.393,3.0,2.513,0.024
20/05/2023,09:54:59,1.400,3.0,2.537,0.024
20/05/2023,09:56:00,1.407,3.0,2.56,0.023
20/05/2023,09:57:00,1.415,3.0,2.583,0.023
20/05/2023,09:57:59,1.416,3.0,2.606,0.023
20/05/2023,09:58:59,1.413,3.0,2.629,0.023
20/05/2023,09:59:59,1.438,3.0,2.654,0.025